Time,TemperatureF,DewpointF,PressureIn,WindDirection,WindDirectionDegrees,WindSpeedMPH,WindSpeedGustMPH,Humidity,HourlyPrecipIn,Conditions,Clouds,dailyrainin,SoftwareType,DateUTC
2013-04-10 00:00:00,65.0,62.3,30.32,East,88,0.0,0.0,91,0.00,,CLR,0.00,VWS V14.01,2013-04-10 04:00:00,
2013-04-10 00:01:00,65.0,62.3,30.32,East,88,0.0,0.0,91,0.00,,CLR,0.00,VWS V14.01,2013-04-10 04:01:00,
2013-04-10 00:06:00,65.0,62.3,30.32,East,88,0.0,0.0,91,0.00,,CLR,0.00,VWS V14.01,2013-04-10 04:06:00,
2013-04-10 00:12:00,64.8,62.1,30.32,East,88,0.0,0.0,91,0.00,,CLR,0.00,VWS V14.01,2013-04-10 04:12:00,
2013-04-10 00:17:00,64.5,61.8,30.32,East,88,0.0,0.0,91,0.00,,CLR,0.00,VWS V14.01,2013-04-10 04:17:00,
2013-04-10 00:22:00,64.2,61.5,30.32,East,88,0.0,0.0,91,0.00,,CLR,0.00,VWS V14.01,2013-04-10 04:22:00,
2013-04-10 00:27:00,64.0,61.6,30.32,East,88,0.0,0.0,92,0.00,,CLR,0.00,VWS V14.01,2013-04-10 04:27:00,
2013-04-10 00:32:00,63.9,61.5,30.31,East,88,0.0,0.0,92,0.00,,CLR,0.00,VWS V14.01,2013-04-10 04:32:00,
2013-04-10 00:37:00,63.9,61.8,30.31,East,88,0.0,0.0,93,0.00,,CLR,0.00,VWS V14.01,2013-04-10 04:37:00,
2013-04-10 00:42:00,64.0,61.9,30.31,East,88,0.0,0.0,93,0.00,,CLR,0.00,VWS V14.01,2013-04-10 04:42:00,
2013-04-10 00:47:00,64.0,61.9,30.31,East,88,0.0,0.0,93,0.00,,CLR,0.00,VWS V14.01,2013-04-10 04:47:00,
2013-04-10 00:52:00,64.0,61.9,30.31,East,88,0.0,0.0,93,0.00,,CLR,0.00,VWS V14.01,2013-04-10 04:52:00,
2013-04-10 00:57:00,64.2,62.1,30.31,East,88,0.0,0.0,93,0.00,,CLR,0.00,VWS V14.01,2013-04-10 04:57:00,
2013-04-10 01:02:00,64.2,62.1,30.31,East,88,0.0,0.0,93,0.00,,CLR,0.00,VWS V14.01,2013-04-10 05:02:00,
2013-04-10 01:07:00,64.2,62.1,30.31,East,88,0.0,0.0,93,0.00,,CLR,0.00,VWS V14.01,2013-04-10 05:07:00,
2013-04-10 01:12:00,64.2,62.1,30.31,East,88,0.0,0.0,93,0.00,,CLR,0.00,VWS V14.01,2013-04-10 05:12:00,
2013-04-10 01:17:00,64.3,62.2,30.31,East,88,0.0,0.0,93,0.00,,CLR,0.00,VWS V14.01,2013-04-10 05:17:00,
2013-04-10 01:22:00,64.5,62.1,30.31,East,88,0.0,0.0,92,0.00,,CLR,0.00,VWS V14.01,2013-04-10 05:22:00,
2013-04-10 01:27:00,64.5,62.1,30.31,East,88,0.0,0.0,92,0.00,,CLR,0.00,VWS V14.01,2013-04-10 05:27:00,
2013-04-10 01:32:00,64.5,62.1,30.30,East,88,0.0,0.0,92,0.00,,CLR,0.00,VWS V14.01,2013-04-10 05:32:00,
2013-04-10 01:37:00,64.3,61.9,30.30,East,88,0.0,0.0,92,0.00,,CLR,0.00,VWS V14.01,2013-04-10 05:37:00,
2013-04-10 01:42:00,64.3,61.9,30.30,East,88,0.0,0.0,92,0.00,,CLR,0.00,VWS V14.01,2013-04-10 05:42:00,
2013-04-10 01:48:00,64.2,61.8,30.30,East,88,0.0,0.0,92,0.00,,CLR,0.00,VWS V14.01,2013-04-10 05:48:00,
2013-04-10 01:53:00,64.2,61.8,30.30,East,88,0.0,0.0,92,0.00,,CLR,0.00,VWS V14.01,2013-04-10 05:53:00,
2013-04-10 01:58:00,64.2,61.8,30.30,East,88,0.0,0.0,92,0.00,,CLR,0.00,VWS V14.01,2013-04-10 05:58:00,
2013-04-10 02:03:00,64.0,61.6,30.29,East,88,0.0,0.0,92,0.00,,CLR,0.00,VWS V14.01,2013-04-10 06:03:00,
2013-04-10 02:08:00,63.9,61.2,30.29,East,88,0.0,0.0,91,0.00,,CLR,0.00,VWS V14.01,2013-04-10 06:08:00,
2013-04-10 02:13:00,63.7,61.3,30.29,East,88,0.0,0.0,92,0.00,,CLR,0.00,VWS V14.01,2013-04-10 06:13:00,
2013-04-10 02:18:00,63.7,61.3,30.28,East,88,0.0,0.0,92,0.00,,CLR,0.00,VWS V14.01,2013-04-10 06:18:00,
2013-04-10 02:23:00,63.7,61.0,30.28,East,88,0.0,0.0,91,0.00,,CLR,0.00,VWS V14.01,2013-04-10 06:23:00,
2013-04-10 02:28:00,63.7,61.0,30.28,East,88,0.0,0.0,91,0.00,,CLR,0.00,VWS V14.01,2013-04-10 06:28:00,
2013-04-10 02:33:00,63.5,60.8,30.27,East,88,0.0,0.0,91,0.00,,CLR,0.00,VWS V14.01,2013-04-10 06:33:00,
2013-04-10 02:38:00,63.5,61.1,30.27,East,88,0.0,0.0,92,0.00,,CLR,0.00,VWS V14.01,2013-04-10 06:38:00,
2013-04-10 02:43:00,63.5,60.8,30.27,East,88,0.0,0.0,91,0.00,,CLR,0.00,VWS V14.01,2013-04-10 06:43:00,
2013-04-10 02:49:00,63.4,60.7,30.27,East,88,0.0,0.0,91,0.00,,CLR,0.00,VWS V14.01,2013-04-10 06:49:00,
2013-04-10 02:54:00,63.2,60.5,30.27,East,88,0.0,0.0,91,0.00,,CLR,0.00,VWS V14.01,2013-04-10 06:54:00,
2013-04-10 02:59:00,63.1,60.4,30.27,East,88,0.0,0.0,91,0.00,,CLR,0.00,VWS V14.01,2013-04-10 06:59:00,
2013-04-10 03:04:00,62.9,60.5,30.27,East,88,0.0,0.0,92,0.00,,CLR,0.00,VWS V14.01,2013-04-10 07:04:00,
2013-04-10 03:09:00,62.7,60.0,30.27,East,88,0.0,0.0,91,0.00,,CLR,0.00,VWS V14.01,2013-04-10 07:09:00,
2013-04-10 03:14:00,62.6,60.2,30.27,East,88,0.0,0.0,92,0.00,,CLR,0.00,VWS V14.01,2013-04-10 07:14:00,
2013-04-10 03:19:00,62.4,60.0,30.27,East,88,0.0,0.0,92,0.00,,CLR,0.00,VWS V14.01,2013-04-10 07:19:00,
2013-04-10 03:24:00,62.3,60.0,30.27,East,88,0.0,0.0,92,0.00,,CLR,0.00,VWS V14.01,2013-04-10 07:24:00,
2013-04-10 03:29:00,62.1,60.1,30.27,East,88,0.0,0.0,93,0.00,,CLR,0.00,VWS V14.01,2013-04-10 07:29:00,
2013-04-10 03:34:00,61.8,59.8,30.27,East,88,0.0,0.0,93,0.00,,CLR,0.00,VWS V14.01,2013-04-10 07:34:00,
2013-04-10 03:39:00,61.8,59.8,30.27,East,88,0.0,0.0,93,0.00,,CLR,0.00,VWS V14.01,2013-04-10 07:39:00,
2013-04-10 03:44:00,61.6,59.6,30.27,East,88,0.0,0.0,93,0.00,,CLR,0.00,VWS V14.01,2013-04-10 07:44:00,
2013-04-10 03:49:00,61.3,59.3,30.27,East,88,0.0,0.0,93,0.00,,CLR,0.00,VWS V14.01,2013-04-10 07:49:00,
2013-04-10 03:54:00,61.3,59.3,30.27,East,88,0.0,0.0,93,0.00,,CLR,0.00,VWS V14.01,2013-04-10 07:54:00,
2013-04-10 03:59:00,61.2,59.5,30.27,East,88,0.0,0.0,94,0.00,,CLR,0.00,VWS V14.01,2013-04-10 07:59:00,
2013-04-10 04:04:00,61.2,59.5,30.27,East,88,0.0,0.0,94,0.00,,CLR,0.00,VWS V14.01,2013-04-10 08:04:00,
2013-04-10 04:09:00,61.2,59.5,30.27,East,88,0.0,0.0,94,0.00,,CLR,0.00,VWS V14.01,2013-04-10 08:09:00,
2013-04-10 04:14:00,60.9,59.2,30.27,East,88,0.0,0.0,94,0.00,,CLR,0.00,VWS V14.01,2013-04-10 08:14:00,
2013-04-10 04:19:00,60.7,59.0,30.27,East,88,0.0,0.0,94,0.00,,CLR,0.00,VWS V14.01,2013-04-10 08:19:00,
2013-04-10 04:24:00,60.4,58.7,30.27,East,88,0.0,0.0,94,0.00,,CLR,0.00,VWS V14.01,2013-04-10 08:24:00,
2013-04-10 04:29:00,60.1,58.4,30.27,East,88,0.0,0.0,94,0.00,,CLR,0.00,VWS V14.01,2013-04-10 08:29:00,
2013-04-10 04:34:00,59.8,58.1,30.27,East,88,0.0,0.0,94,0.00,,CLR,0.00,VWS V14.01,2013-04-10 08:34:00,
2013-04-10 04:39:00,59.5,57.8,30.27,East,88,0.0,0.0,94,0.00,,CLR,0.00,VWS V14.01,2013-04-10 08:39:00,
2013-04-10 04:44:00,59.2,57.5,30.27,East,88,0.0,0.0,94,0.00,,CLR,0.00,VWS V14.01,2013-04-10 08:44:00,
2013-04-10 04:49:00,58.9,57.2,30.27,East,88,0.0,0.0,94,0.00,,CLR,0.00,VWS V14.01,2013-04-10 08:49:00,
2013-04-10 04:54:00,58.7,57.3,30.27,East,88,0.0,0.0,95,0.00,,CLR,0.00,VWS V14.01,2013-04-10 08:54:00,
2013-04-10 04:59:00,58.4,57.0,30.27,East,88,0.0,0.0,95,0.00,,CLR,0.00,VWS V14.01,2013-04-10 08:59:00,
2013-04-10 05:04:00,58.3,56.9,30.27,East,88,0.0,0.0,95,0.00,,,0.00,VWS V14.01,2013-04-10 09:04:00,
2013-04-10 05:10:00,58.0,56.6,30.27,East,88,0.0,0.0,95,0.00,,,0.00,VWS V14.01,2013-04-10 09:10:00,
2013-04-10 05:15:00,57.8,56.4,30.28,East,88,0.0,0.0,95,0.00,,,0.00,VWS V14.01,2013-04-10 09:15:00,
2013-04-10 05:20:00,57.6,56.2,30.28,East,88,0.0,0.0,95,0.00,,,0.00,VWS V14.01,2013-04-10 09:20:00,
2013-04-10 05:25:00,57.5,56.1,30.28,East,88,0.0,0.0,95,0.00,,,0.00,VWS V14.01,2013-04-10 09:25:00,
2013-04-10 05:30:00,57.3,55.9,30.28,East,88,0.0,0.0,95,0.00,,,0.00,VWS V14.01,2013-04-10 09:30:00,
2013-04-10 05:35:00,57.3,55.9,30.28,East,88,0.0,0.0,95,0.00,,,0.00,VWS V14.01,2013-04-10 09:35:00,
2013-04-10 05:40:00,57.3,55.9,30.28,East,88,0.0,0.0,95,0.00,,,0.00,VWS V14.01,2013-04-10 09:40:00,
2013-04-10 05:45:00,57.2,55.8,30.28,East,88,0.0,0.0,95,0.00,,,0.00,VWS V14.01,2013-04-10 09:45:00,
2013-04-10 05:50:00,57.0,55.6,30.28,East,88,0.0,0.0,95,0.00,,,0.00,VWS V14.01,2013-04-10 09:50:00,
2013-04-10 05:55:00,56.7,55.3,30.28,East,88,0.0,0.0,95,0.00,,,0.00,VWS V14.01,2013-04-10 09:55:00,
2013-04-10 06:00:00,56.6,55.2,30.29,East,88,0.0,0.0,95,0.00,,,0.00,VWS V14.01,2013-04-10 10:00:00,
2013-04-10 06:05:00,56.7,55.6,30.29,East,88,0.0,0.0,96,0.00,,,0.00,VWS V14.01,2013-04-10 10:05:00,
2013-04-10 06:10:00,57.0,55.9,30.29,East,88,0.0,0.0,96,0.00,,,0.00,VWS V14.01,2013-04-10 10:10:00,
2013-04-10 06:15:00,57.0,55.9,30.29,East,88,0.0,0.0,96,0.00,,,0.00,VWS V14.01,2013-04-10 10:15:00,
2013-04-10 06:20:00,57.0,55.9,30.29,East,88,0.0,0.0,96,0.00,,,0.00,VWS V14.01,2013-04-10 10:20:00,
2013-04-10 06:25:00,57.0,55.9,30.29,East,88,0.0,0.0,96,0.00,,,0.00,VWS V14.01,2013-04-10 10:25:00,
2013-04-10 06:30:00,57.2,56.1,30.29,East,88,0.0,0.0,96,0.00,,,0.00,VWS V14.01,2013-04-10 10:30:00,
2013-04-10 06:35:00,57.2,56.1,30.29,East,88,0.0,0.0,96,0.00,,,0.00,VWS V14.01,2013-04-10 10:35:00,
2013-04-10 06:41:00,57.0,55.9,30.29,East,88,0.0,0.0,96,0.00,,,0.00,VWS V14.01,2013-04-10 10:41:00,
2013-04-10 06:46:00,56.9,55.8,30.29,East,88,0.0,0.0,96,0.00,,,0.00,VWS V14.01,2013-04-10 10:46:00,
2013-04-10 06:51:00,56.6,55.5,30.29,East,88,0.0,0.0,96,0.00,,,0.00,VWS V14.01,2013-04-10 10:51:00,
2013-04-10 06:56:00,56.5,55.4,30.29,East,88,0.0,0.0,96,0.00,,,0.00,VWS V14.01,2013-04-10 10:56:00,
2013-04-10 07:01:00,56.5,55.4,30.30,East,88,0.0,0.0,96,0.00,,,0.00,VWS V14.01,2013-04-10 11:01:00,
2013-04-10 07:06:00,56.3,55.2,30.30,East,88,0.0,0.0,96,0.00,,,0.00,VWS V14.01,2013-04-10 11:06:00,
2013-04-10 07:11:00,56.0,54.9,30.30,East,88,0.0,0.0,96,0.00,,,0.00,VWS V14.01,2013-04-10 11:11:00,
2013-04-10 07:16:00,55.9,54.8,30.31,East,88,0.0,0.0,96,0.00,,,0.00,VWS V14.01,2013-04-10 11:16:00,
2013-04-10 07:21:00,55.9,55.1,30.31,East,88,0.0,0.0,97,0.00,,,0.00,VWS V14.01,2013-04-10 11:21:00,
2013-04-10 07:27:00,55.9,55.1,30.31,East,88,0.0,0.0,97,0.00,,,0.00,VWS V14.01,2013-04-10 11:27:00,
2013-04-10 07:32:00,56.0,55.2,30.31,East,88,0.0,0.0,97,0.00,,,0.00,VWS V14.01,2013-04-10 11:32:00,
2013-04-10 07:37:00,56.3,55.5,30.31,East,88,0.0,0.0,97,0.00,,,0.00,VWS V14.01,2013-04-10 11:37:00,
2013-04-10 07:42:00,56.6,55.8,30.31,East,88,0.0,0.0,97,0.00,,,0.00,VWS V14.01,2013-04-10 11:42:00,
2013-04-10 07:47:00,57.2,56.4,30.32,East,88,0.0,0.0,97,0.00,,,0.00,VWS V14.01,2013-04-10 11:47:00,
2013-04-10 07:52:00,57.8,57.2,30.32,East,88,0.0,0.0,98,0.00,,,0.00,VWS V14.01,2013-04-10 11:52:00,
2013-04-10 07:57:00,59.5,58.9,30.32,East,88,0.0,0.0,98,0.00,,,0.00,VWS V14.01,2013-04-10 11:57:00,
2013-04-10 08:02:00,60.5,59.9,30.32,East,88,0.0,0.0,98,0.00,,FEW020,0.00,VWS V14.01,2013-04-10 12:02:00,
2013-04-10 08:08:00,61.0,60.4,30.32,East,88,0.0,0.0,98,0.00,,FEW020,0.00,VWS V14.01,2013-04-10 12:08:00,
2013-04-10 08:13:00,61.3,60.7,30.32,East,88,0.0,0.0,98,0.00,,FEW020,0.00,VWS V14.01,2013-04-10 12:13:00,
2013-04-10 08:18:00,61.6,61.0,30.32,East,88,0.0,0.0,98,0.00,,FEW020,0.00,VWS V14.01,2013-04-10 12:18:00,
2013-04-10 08:23:00,62.3,61.7,30.32,East,88,0.0,0.0,98,0.00,,FEW020,0.00,VWS V14.01,2013-04-10 12:23:00,
2013-04-10 08:28:00,63.1,62.5,30.32,East,88,0.0,0.0,98,0.00,,FEW020,0.00,VWS V14.01,2013-04-10 12:28:00,
2013-04-10 08:33:00,63.9,63.3,30.32,East,88,0.0,0.0,98,0.00,,FEW020,0.00,VWS V14.01,2013-04-10 12:33:00,
2013-04-10 08:38:00,64.5,63.6,30.32,East,84,0.0,0.0,97,0.00,,FEW020,0.00,VWS V14.01,2013-04-10 12:38:00,
2013-04-10 08:43:00,65.0,64.1,30.32,East,83,0.0,0.0,97,0.00,,FEW020,0.00,VWS V14.01,2013-04-10 12:43:00,
2013-04-10 08:48:00,65.6,64.7,30.32,East,83,0.0,0.0,97,0.00,,FEW020,0.00,VWS V14.01,2013-04-10 12:48:00,
2013-04-10 08:53:00,66.0,64.8,30.32,East,83,0.0,0.0,96,0.00,,FEW020,0.00,VWS V14.01,2013-04-10 12:53:00,
2013-04-10 08:58:00,66.8,65.6,30.32,East,83,0.0,0.0,96,0.00,,FEW020,0.00,VWS V14.01,2013-04-10 12:58:00,
2013-04-10 09:03:00,67.6,65.5,30.32,East,83,0.0,0.0,93,0.00,,FEW025,0.00,VWS V14.01,2013-04-10 13:03:00,
2013-04-10 09:09:00,68.3,65.3,30.32,SSW,198,0.0,0.0,90,0.00,,FEW025,0.00,VWS V14.01,2013-04-10 13:09:00,
2013-04-10 09:14:00,69.1,65.4,30.32,SSW,205,0.0,0.0,88,0.00,,FEW025,0.00,VWS V14.01,2013-04-10 13:14:00,
2013-04-10 09:19:00,69.9,65.2,30.32,SW,215,0.0,0.0,85,0.00,,FEW025,0.00,VWS V14.01,2013-04-10 13:19:00,
2013-04-10 09:24:00,70.4,64.7,30.32,West,278,0.0,0.0,82,0.00,,FEW025,0.00,VWS V14.01,2013-04-10 13:24:00,
2013-04-10 09:29:00,71.1,65.0,30.32,West,281,0.0,0.0,81,0.00,,FEW025,0.00,VWS V14.01,2013-04-10 13:29:00,
2013-04-10 09:34:00,71.8,64.9,30.32,South,187,0.0,0.0,79,0.00,,FEW025,0.00,VWS V14.01,2013-04-10 13:34:00,
2013-04-10 09:39:00,72.3,64.7,30.32,WNW,298,0.0,0.0,77,0.00,,FEW025,0.00,VWS V14.01,2013-04-10 13:39:00,
2013-04-10 09:45:00,72.8,64.4,30.32,ENE,78,0.0,0.0,75,0.00,,FEW025,0.00,VWS V14.01,2013-04-10 13:45:00,
2013-04-10 09:50:00,73.3,64.5,30.32,SSW,211,0.0,2.0,74,0.00,,FEW025,0.00,VWS V14.01,2013-04-10 13:50:00,
2013-04-10 09:55:00,73.3,63.7,30.32,NW,304,0.0,0.0,72,0.00,,FEW025,0.00,VWS V14.01,2013-04-10 13:55:00,
2013-04-10 10:00:00,73.7,63.7,30.32,NE,53,0.0,0.0,71,0.00,,FEW025,0.00,VWS V14.01,2013-04-10 14:00:00,
2013-04-10 10:05:00,73.9,63.5,30.32,West,270,0.0,0.0,70,0.00,,FEW025,0.00,VWS V14.01,2013-04-10 14:05:00,
2013-04-10 10:10:00,74.0,62.8,30.32,NW,321,0.0,1.0,68,0.00,,FEW025,0.00,VWS V14.01,2013-04-10 14:10:00,
2013-04-10 10:15:00,74.4,63.6,30.33,WSW,240,0.0,0.0,69,0.00,,FEW025,0.00,VWS V14.01,2013-04-10 14:15:00,
2013-04-10 10:21:00,74.9,63.6,30.33,SSW,210,0.0,0.0,68,0.00,,FEW025,0.00,VWS V14.01,2013-04-10 14:21:00,
2013-04-10 10:26:00,75.8,63.6,30.33,ESE,105,1.0,1.0,66,0.00,,FEW025,0.00,VWS V14.01,2013-04-10 14:26:00,
2013-04-10 10:31:00,76.1,62.6,30.33,SSW,205,0.0,0.0,63,0.00,,FEW025,0.00,VWS V14.01,2013-04-10 14:31:00,
2013-04-10 10:36:00,76.7,63.2,30.33,NE,45,6.0,6.0,63,0.00,,FEW025,0.00,VWS V14.01,2013-04-10 14:36:00,
2013-04-10 10:41:00,77.2,63.2,30.33,NW,309,0.0,4.0,62,0.00,,FEW025,0.00,VWS V14.01,2013-04-10 14:41:00,
2013-04-10 10:46:00,77.7,63.7,30.33,SSE,166,0.0,0.0,62,0.00,,FEW025,0.00,VWS V14.01,2013-04-10 14:46:00,
2013-04-10 10:51:00,77.9,63.4,30.33,SE,139,0.0,4.0,61,0.00,,FEW025,0.00,VWS V14.01,2013-04-10 14:51:00,
2013-04-10 10:56:00,77.7,63.2,30.33,ENE,75,0.0,0.0,61,0.00,,FEW025,0.00,VWS V14.01,2013-04-10 14:56:00,
2013-04-10 11:02:00,77.7,63.2,30.33,SE,139,0.0,0.0,61,0.00,,SCT030,0.00,VWS V14.01,2013-04-10 15:02:00,
2013-04-10 11:07:00,78.3,63.3,30.33,East,79,0.0,2.0,60,0.00,,SCT030,0.00,VWS V14.01,2013-04-10 15:07:00,
2013-04-10 11:12:00,79.0,63.0,30.33,SE,127,0.0,2.0,58,0.00,,SCT030,0.00,VWS V14.01,2013-04-10 15:12:00,
2013-04-10 11:17:00,78.8,62.8,30.33,NNW,328,0.0,0.0,58,0.00,,SCT030,0.00,VWS V14.01,2013-04-10 15:17:00,
2013-04-10 11:22:00,78.5,62.5,30.33,WSW,241,0.0,1.0,58,0.00,,SCT030,0.00,VWS V14.01,2013-04-10 15:22:00,
2013-04-10 11:27:00,77.7,62.7,30.33,NW,307,0.0,1.0,60,0.00,,SCT030,0.00,VWS V14.01,2013-04-10 15:27:00,
2013-04-10 11:33:00,77.6,62.6,30.33,ESE,112,0.0,0.0,60,0.00,,SCT030,0.00,VWS V14.01,2013-04-10 15:33:00,
2013-04-10 11:38:00,77.4,62.9,30.33,West,276,0.0,0.0,61,0.00,,SCT030,0.00,VWS V14.01,2013-04-10 15:38:00,
2013-04-10 11:43:00,78.1,62.6,30.33,NNW,330,2.0,4.0,59,0.00,,SCT030,0.00,VWS V14.01,2013-04-10 15:43:00,
2013-04-10 11:48:00,78.8,61.3,30.33,ENE,72,0.0,6.0,55,0.00,,SCT030,0.00,VWS V14.01,2013-04-10 15:48:00,
2013-04-10 11:53:00,79.4,61.8,30.33,SE,126,0.0,4.0,55,0.00,,SCT030,0.00,VWS V14.01,2013-04-10 15:53:00,
2013-04-10 11:58:00,79.8,61.7,30.33,NE,56,0.0,5.0,54,0.00,,SCT030,0.00,VWS V14.01,2013-04-10 15:58:00,
2013-04-10 12:03:00,80.1,62.0,30.32,NNW,330,0.0,3.0,54,0.00,,SCT035,0.00,VWS V14.01,2013-04-10 16:03:00,
2013-04-10 12:08:00,79.9,61.8,30.32,East,95,0.0,1.0,54,0.00,,SCT035,0.00,VWS V14.01,2013-04-10 16:08:00,
2013-04-10 12:13:00,79.4,61.3,30.32,ENE,75,0.0,0.0,54,0.00,,SCT035,0.00,VWS V14.01,2013-04-10 16:13:00,
2013-04-10 12:18:00,79.0,61.0,30.32,East,80,0.0,0.0,54,0.00,,SCT035,0.00,VWS V14.01,2013-04-10 16:18:00,
2013-04-10 12:23:00,78.5,61.0,30.32,WNW,300,0.0,0.0,55,0.00,,SCT035,0.00,VWS V14.01,2013-04-10 16:23:00,
2013-04-10 12:28:00,79.4,63.3,30.32,SE,125,0.0,1.0,58,0.00,,SCT035,0.00,VWS V14.01,2013-04-10 16:28:00,
2013-04-10 12:34:00,80.3,61.1,30.32,East,80,0.0,0.0,52,0.00,,SCT035,0.00,VWS V14.01,2013-04-10 16:34:00,
2013-04-10 12:39:00,80.9,61.6,30.32,ENE,77,0.0,2.0,52,0.00,,SCT035,0.00,VWS V14.01,2013-04-10 16:39:00,
2013-04-10 12:44:00,79.9,61.3,30.32,NW,326,0.0,0.0,53,0.00,,SCT035,0.00,VWS V14.01,2013-04-10 16:44:00,
2013-04-10 12:49:00,79.2,60.1,30.31,West,266,0.0,0.0,52,0.00,,SCT035,0.00,VWS V14.01,2013-04-10 16:49:00,
2013-04-10 12:54:00,78.6,61.1,30.31,South,174,0.0,0.0,55,0.00,,SCT035,0.00,VWS V14.01,2013-04-10 16:54:00,
2013-04-10 12:59:00,79.4,61.3,30.31,ENE,72,0.0,0.0,54,0.00,,SCT035,0.00,VWS V14.01,2013-04-10 16:59:00,
2013-04-10 13:04:00,80.3,61.1,30.31,South,188,0.0,0.0,52,0.00,,SCT045,0.00,VWS V14.01,2013-04-10 17:04:00,
2013-04-10 13:09:00,81.2,61.4,30.31,East,101,0.0,0.0,51,0.00,,SCT045,0.00,VWS V14.01,2013-04-10 17:09:00,
2013-04-10 13:14:00,81.8,60.8,30.31,WNW,294,0.0,0.0,49,0.00,,SCT045,0.00,VWS V14.01,2013-04-10 17:14:00,
2013-04-10 13:19:00,82.0,60.4,30.30,NW,314,0.0,0.0,48,0.00,,SCT045,0.00,VWS V14.01,2013-04-10 17:19:00,
2013-04-10 13:24:00,81.8,59.6,30.30,NNW,335,0.0,0.0,47,0.00,,SCT045,0.00,VWS V14.01,2013-04-10 17:24:00,
2013-04-10 13:30:00,81.4,59.3,30.30,SSE,158,0.0,0.0,47,0.00,,SCT045,0.00,VWS V14.01,2013-04-10 17:30:00,
2013-04-10 13:35:00,81.4,59.8,30.30,NW,324,0.0,0.0,48,0.00,,SCT045,0.00,VWS V14.01,2013-04-10 17:35:00,
2013-04-10 13:40:00,81.2,59.7,30.30,West,263,0.0,0.0,48,0.00,,SCT045,0.00,VWS V14.01,2013-04-10 17:40:00,
2013-04-10 13:45:00,81.8,59.0,30.30,ENE,59,0.0,0.0,46,0.00,,SCT045,0.00,VWS V14.01,2013-04-10 17:45:00,
2013-04-10 13:50:00,81.6,59.4,30.30,WSW,245,0.0,0.0,47,0.00,,SCT045,0.00,VWS V14.01,2013-04-10 17:50:00,
2013-04-10 13:55:00,81.4,59.3,30.30,SSE,149,0.0,2.0,47,0.00,,SCT045,0.00,VWS V14.01,2013-04-10 17:55:00,
2013-04-10 14:00:00,81.8,60.8,30.29,ESE,103,0.0,0.0,49,0.00,,FEW050,0.00,VWS V14.01,2013-04-10 18:00:00,
2013-04-10 14:05:00,82.2,59.4,30.29,WNW,288,0.0,0.0,46,0.00,,FEW050,0.00,VWS V14.01,2013-04-10 18:05:00,
2013-04-10 14:11:00,82.0,60.4,30.29,East,86,0.0,0.0,48,0.00,,FEW050,0.00,VWS V14.01,2013-04-10 18:11:00,
2013-04-10 14:16:00,82.4,60.2,30.28,NW,314,0.0,1.0,47,0.00,,FEW050,0.00,VWS V14.01,2013-04-10 18:16:00,
2013-04-10 14:22:00,82.0,59.2,30.28,SW,217,0.0,0.0,46,0.00,,FEW050,0.00,VWS V14.01,2013-04-10 18:22:00,
2013-04-10 14:27:00,82.0,59.8,30.28,East,98,0.0,1.0,47,0.00,,FEW050,0.00,VWS V14.01,2013-04-10 18:27:00,
2013-04-10 14:32:00,82.6,60.9,30.27,ENE,76,0.0,0.0,48,0.00,,FEW050,0.00,VWS V14.01,2013-04-10 18:32:00,
2013-04-10 14:37:00,82.4,59.0,30.27,East,94,0.0,0.0,45,0.00,,FEW050,0.00,VWS V14.01,2013-04-10 18:37:00,
2013-04-10 14:43:00,82.2,59.4,30.27,ESE,110,0.0,2.0,46,0.00,,FEW050,0.00,VWS V14.01,2013-04-10 18:43:00,
2013-04-10 14:48:00,82.6,59.1,30.27,North,11,0.0,4.0,45,0.00,,FEW050,0.00,VWS V14.01,2013-04-10 18:48:00,
2013-04-10 14:53:00,82.4,59.0,30.27,SW,221,0.0,0.0,45,0.00,,FEW050,0.00,VWS V14.01,2013-04-10 18:53:00,
2013-04-10 14:58:00,82.4,58.3,30.27,SE,133,0.0,1.0,44,0.00,,FEW050,0.00,VWS V14.01,2013-04-10 18:58:00,
2013-04-10 15:03:00,82.2,58.1,30.26,North,0,0.0,0.0,44,0.00,,FEW050,0.00,VWS V14.01,2013-04-10 19:03:00,
2013-04-10 15:09:00,82.0,58.6,30.26,NNE,24,0.0,3.0,45,0.00,,FEW050,0.00,VWS V14.01,2013-04-10 19:09:00,
2013-04-10 15:14:00,81.8,57.8,30.26,SW,218,0.0,0.0,44,0.00,,FEW050,0.00,VWS V14.01,2013-04-10 19:14:00,
2013-04-10 15:19:00,81.8,57.8,30.26,East,89,0.0,1.0,44,0.00,,FEW050,0.00,VWS V14.01,2013-04-10 19:19:00,
2013-04-10 15:24:00,82.2,57.5,30.26,East,86,0.0,0.0,43,0.00,,FEW050,0.00,VWS V14.01,2013-04-10 19:24:00,
2013-04-10 15:29:00,82.4,58.3,30.26,SE,139,0.0,0.0,44,0.00,,FEW050,0.00,VWS V14.01,2013-04-10 19:29:00,
2013-04-10 15:34:00,82.4,58.3,30.25,East,80,0.0,0.0,44,0.00,,FEW050,0.00,VWS V14.01,2013-04-10 19:34:00,
2013-04-10 15:39:00,82.0,58.0,30.25,East,96,0.0,6.0,44,0.00,,FEW050,0.00,VWS V14.01,2013-04-10 19:39:00,
2013-04-10 15:44:00,81.8,58.4,30.25,NE,38,1.0,1.0,45,0.00,,FEW050,0.00,VWS V14.01,2013-04-10 19:44:00,
2013-04-10 15:49:00,81.6,57.6,30.25,ESE,103,0.0,0.0,44,0.00,,FEW050,0.00,VWS V14.01,2013-04-10 19:49:00,
2013-04-10 15:54:00,81.8,59.0,30.25,ESE,104,0.0,2.0,46,0.00,,FEW050,0.00,VWS V14.01,2013-04-10 19:54:00,
2013-04-10 15:59:00,81.6,59.4,30.24,ESE,113,0.0,0.0,47,0.00,,FEW050,0.00,VWS V14.01,2013-04-10 19:59:00,
2013-04-10 16:05:00,81.6,58.8,30.24,ESE,118,0.0,4.0,46,0.00,,CLR,0.00,VWS V14.01,2013-04-10 20:05:00,
2013-04-10 16:10:00,81.2,58.5,30.24,SW,219,0.0,0.0,46,0.00,,CLR,0.00,VWS V14.01,2013-04-10 20:10:00,
2013-04-10 16:15:00,81.2,59.1,30.24,ENE,58,2.0,2.0,47,0.00,,CLR,0.00,VWS V14.01,2013-04-10 20:15:00,
2013-04-10 16:20:00,81.1,59.0,30.24,ESE,111,0.0,3.0,47,0.00,,CLR,0.00,VWS V14.01,2013-04-10 20:20:00,
2013-04-10 16:25:00,80.9,60.0,30.24,ENE,77,0.0,0.0,49,0.00,,CLR,0.00,VWS V14.01,2013-04-10 20:25:00,
2013-04-10 16:30:00,81.1,59.0,30.24,ENE,68,0.0,2.0,47,0.00,,CLR,0.00,VWS V14.01,2013-04-10 20:30:00,
2013-04-10 16:35:00,80.9,60.0,30.24,ESE,121,0.0,2.0,49,0.00,,CLR,0.00,VWS V14.01,2013-04-10 20:35:00,
2013-04-10 16:40:00,80.9,59.4,30.24,East,98,0.0,1.0,48,0.00,,CLR,0.00,VWS V14.01,2013-04-10 20:40:00,
2013-04-10 16:45:00,80.7,59.8,30.23,SSE,156,0.0,0.0,49,0.00,,CLR,0.00,VWS V14.01,2013-04-10 20:45:00,
2013-04-10 16:50:00,80.1,59.2,30.23,ESE,103,0.0,0.0,49,0.00,,CLR,0.00,VWS V14.01,2013-04-10 20:50:00,
2013-04-10 16:56:00,79.9,58.5,30.23,East,95,0.0,0.0,48,0.00,,CLR,0.00,VWS V14.01,2013-04-10 20:56:00,
2013-04-10 17:01:00,79.9,58.5,30.23,SW,218,0.0,0.0,48,0.00,,CLR,0.00,VWS V14.01,2013-04-10 21:01:00,
2013-04-10 17:06:00,80.3,58.2,30.23,ESE,111,0.0,1.0,47,0.00,,CLR,0.00,VWS V14.01,2013-04-10 21:06:00,
2013-04-10 17:11:00,80.3,58.8,30.23,East,79,0.0,1.0,48,0.00,,CLR,0.00,VWS V14.01,2013-04-10 21:11:00,
2013-04-10 17:16:00,80.1,59.2,30.23,NNE,15,0.0,0.0,49,0.00,,CLR,0.00,VWS V14.01,2013-04-10 21:16:00,
2013-04-10 17:22:00,80.5,58.4,30.23,SE,130,0.0,0.0,47,0.00,,CLR,0.00,VWS V14.01,2013-04-10 21:22:00,
2013-04-10 17:27:00,80.3,59.4,30.23,ESE,117,0.0,0.0,49,0.00,,CLR,0.00,VWS V14.01,2013-04-10 21:27:00,
2013-04-10 17:32:00,80.1,59.2,30.23,ENE,67,0.0,1.0,49,0.00,,CLR,0.00,VWS V14.01,2013-04-10 21:32:00,
2013-04-10 17:37:00,79.9,59.0,30.23,ESE,102,0.0,0.0,49,0.00,,CLR,0.00,VWS V14.01,2013-04-10 21:37:00,
2013-04-10 17:42:00,79.8,59.0,30.23,NNW,329,0.0,1.0,49,0.00,,CLR,0.00,VWS V14.01,2013-04-10 21:42:00,
2013-04-10 17:47:00,79.6,57.6,30.23,NE,54,0.0,1.0,47,0.00,,CLR,0.00,VWS V14.01,2013-04-10 21:47:00,
2013-04-10 17:52:00,79.2,57.8,30.23,NNW,334,0.0,1.0,48,0.00,,CLR,0.00,VWS V14.01,2013-04-10 21:52:00,
2013-04-10 17:57:00,79.0,58.2,30.23,SW,219,0.0,0.0,49,0.00,,CLR,0.00,VWS V14.01,2013-04-10 21:57:00,
2013-04-10 18:02:00,78.8,58.6,30.23,ENE,62,0.0,1.0,50,0.00,,CLR,0.00,VWS V14.01,2013-04-10 22:02:00,
2013-04-10 18:08:00,78.3,58.7,30.23,West,277,0.0,0.0,51,0.00,,CLR,0.00,VWS V14.01,2013-04-10 22:08:00,
2013-04-10 18:13:00,78.1,59.1,30.23,East,87,2.0,2.0,52,0.00,,CLR,0.00,VWS V14.01,2013-04-10 22:13:00,
2013-04-10 18:18:00,77.7,59.2,30.22,ENE,63,0.0,1.0,53,0.00,,CLR,0.00,VWS V14.01,2013-04-10 22:18:00,
2013-04-10 18:23:00,77.2,59.8,30.22,East,85,0.0,9.0,55,0.00,,CLR,0.00,VWS V14.01,2013-04-10 22:23:00,
2013-04-10 18:28:00,77.0,60.1,30.22,East,93,0.0,0.0,56,0.00,,CLR,0.00,VWS V14.01,2013-04-10 22:28:00,
2013-04-10 18:33:00,76.8,60.4,30.22,ESE,108,0.0,1.0,57,0.00,,CLR,0.00,VWS V14.01,2013-04-10 22:33:00,
2013-04-10 18:38:00,76.7,60.8,30.22,East,94,0.0,0.0,58,0.00,,CLR,0.00,VWS V14.01,2013-04-10 22:38:00,
2013-04-10 18:44:00,76.5,60.6,30.22,ESE,105,0.0,0.0,58,0.00,,CLR,0.00,VWS V14.01,2013-04-10 22:44:00,
2013-04-10 18:49:00,76.3,60.9,30.22,ESE,114,0.0,0.0,59,0.00,,CLR,0.00,VWS V14.01,2013-04-10 22:49:00,
2013-04-10 18:54:00,76.1,60.3,30.22,East,95,0.0,0.0,58,0.00,,CLR,0.00,VWS V14.01,2013-04-10 22:54:00,
2013-04-10 18:59:00,75.6,60.3,30.22,SW,228,0.0,0.0,59,0.00,,CLR,0.00,VWS V14.01,2013-04-10 22:59:00,
2013-04-10 19:04:00,75.3,60.5,30.21,NNE,28,0.0,0.0,60,0.00,,FEW050,0.00,VWS V14.01,2013-04-10 23:04:00,
2013-04-10 19:09:00,75.1,60.8,30.21,East,88,0.0,0.0,61,0.00,,FEW050,0.00,VWS V14.01,2013-04-10 23:09:00,
2013-04-10 19:15:00,74.4,60.5,30.21,East,89,0.0,0.0,62,0.00,,FEW050,0.00,VWS V14.01,2013-04-10 23:15:00,
2013-04-10 19:20:00,73.7,60.8,30.21,East,99,0.0,0.0,64,0.00,,FEW050,0.00,VWS V14.01,2013-04-10 23:20:00,
2013-04-10 19:25:00,73.2,60.7,30.21,ESE,103,0.0,0.0,65,0.00,,FEW050,0.00,VWS V14.01,2013-04-10 23:25:00,
2013-04-10 19:30:00,72.7,60.7,30.21,ENE,64,0.0,0.0,66,0.00,,FEW050,0.00,VWS V14.01,2013-04-10 23:30:00,
2013-04-10 19:35:00,72.3,61.2,30.21,ENE,74,0.0,3.0,68,0.00,,FEW050,0.00,VWS V14.01,2013-04-10 23:35:00,
2013-04-10 19:40:00,71.8,61.1,30.21,NE,51,0.0,1.0,69,0.00,,FEW050,0.00,VWS V14.01,2013-04-10 23:40:00,
2013-04-10 19:45:00,71.6,61.3,30.21,ESE,120,0.0,2.0,70,0.00,,FEW050,0.00,VWS V14.01,2013-04-10 23:45:00,
2013-04-10 19:50:00,71.3,61.0,30.21,ESE,116,0.0,0.0,70,0.00,,FEW050,0.00,VWS V14.01,2013-04-10 23:50:00,
2013-04-10 19:55:00,70.9,61.4,30.21,NE,50,0.0,0.0,72,0.00,,FEW050,0.00,VWS V14.01,2013-04-10 23:55:00,
2013-04-10 20:00:00,70.8,61.3,30.21,NE,56,0.0,1.0,72,0.00,,CLR,0.00,VWS V14.01,2013-04-11 00:00:00,
2013-04-10 20:05:00,70.4,61.3,30.21,NE,56,0.0,0.0,73,0.00,,CLR,0.00,VWS V14.01,2013-04-11 00:05:00,
2013-04-10 20:10:00,70.1,61.4,30.21,NE,41,0.0,0.0,74,0.00,,CLR,0.00,VWS V14.01,2013-04-11 00:10:00,
2013-04-10 20:16:00,69.9,61.6,30.21,NE,41,0.0,0.0,75,0.00,,CLR,0.00,VWS V14.01,2013-04-11 00:16:00,
2013-04-10 20:21:00,69.8,61.5,30.21,NE,46,0.0,0.0,75,0.00,,CLR,0.00,VWS V14.01,2013-04-11 00:21:00,
2013-04-10 20:26:00,69.6,62.1,30.21,NE,56,0.0,0.0,77,0.00,,CLR,0.00,VWS V14.01,2013-04-11 00:26:00,
2013-04-10 20:31:00,69.4,61.9,30.22,ESE,107,0.0,0.0,77,0.00,,CLR,0.00,VWS V14.01,2013-04-11 00:31:00,
2013-04-10 20:36:00,69.3,62.2,30.22,ESE,108,0.0,0.0,78,0.00,,CLR,0.00,VWS V14.01,2013-04-11 00:36:00,
2013-04-10 20:41:00,69.1,62.0,30.22,ESE,109,0.0,0.0,78,0.00,,CLR,0.00,VWS V14.01,2013-04-11 00:41:00,
2013-04-10 20:47:00,68.9,61.8,30.22,South,183,0.0,0.0,78,0.00,,CLR,0.00,VWS V14.01,2013-04-11 00:47:00,
2013-04-10 20:52:00,68.8,62.0,30.22,East,81,0.0,0.0,79,0.00,,CLR,0.00,VWS V14.01,2013-04-11 00:52:00,
2013-04-10 20:57:00,68.6,62.2,30.22,East,81,0.0,0.0,80,0.00,,CLR,0.00,VWS V14.01,2013-04-11 00:57:00,
2013-04-10 21:02:00,68.4,62.0,30.22,East,84,0.0,2.0,80,0.00,,CLR,0.00,VWS V14.01,2013-04-11 01:02:00,
2013-04-10 21:07:00,68.3,61.9,30.22,East,84,0.0,0.0,80,0.00,,CLR,0.00,VWS V14.01,2013-04-11 01:07:00,
2013-04-10 21:12:00,68.1,62.1,30.22,East,84,0.0,0.0,81,0.00,,CLR,0.00,VWS V14.01,2013-04-11 01:12:00,
2013-04-10 21:17:00,67.9,61.9,30.22,East,84,0.0,0.0,81,0.00,,CLR,0.00,VWS V14.01,2013-04-11 01:17:00,
2013-04-10 21:22:00,67.8,62.1,30.22,East,84,0.0,0.0,82,0.00,,CLR,0.00,VWS V14.01,2013-04-11 01:22:00,
2013-04-10 21:27:00,67.6,61.9,30.22,East,84,0.0,0.0,82,0.00,,CLR,0.00,VWS V14.01,2013-04-11 01:27:00,
2013-04-10 21:32:00,67.4,62.1,30.21,East,84,0.0,0.0,83,0.00,,CLR,0.00,VWS V14.01,2013-04-11 01:32:00,
2013-04-10 21:37:00,67.3,62.0,30.21,East,84,0.0,0.0,83,0.00,,CLR,0.00,VWS V14.01,2013-04-11 01:37:00,
2013-04-10 21:43:00,67.1,62.1,30.21,East,84,0.0,0.0,84,0.00,,CLR,0.00,VWS V14.01,2013-04-11 01:43:00,
2013-04-10 21:48:00,67.1,62.1,30.22,East,84,0.0,0.0,84,0.00,,CLR,0.00,VWS V14.01,2013-04-11 01:48:00,
2013-04-10 21:53:00,66.9,61.9,30.22,East,84,0.0,0.0,84,0.00,,CLR,0.00,VWS V14.01,2013-04-11 01:53:00,
2013-04-10 21:58:00,66.8,62.2,30.22,East,84,0.0,0.0,85,0.00,,CLR,0.00,VWS V14.01,2013-04-11 01:58:00,
2013-04-10 22:03:00,66.6,62.0,30.21,East,84,0.0,0.0,85,0.00,,CLR,0.00,VWS V14.01,2013-04-11 02:03:00,
2013-04-10 22:08:00,66.4,62.1,30.21,East,84,0.0,0.0,86,0.00,,CLR,0.00,VWS V14.01,2013-04-11 02:08:00,
2013-04-10 22:14:00,66.4,62.1,30.21,East,84,0.0,0.0,86,0.00,,CLR,0.00,VWS V14.01,2013-04-11 02:14:00,
2013-04-10 22:19:00,66.3,62.3,30.21,East,84,0.0,0.0,87,0.00,,CLR,0.00,VWS V14.01,2013-04-11 02:19:00,
2013-04-10 22:24:00,66.3,62.3,30.21,East,84,0.0,0.0,87,0.00,,CLR,0.00,VWS V14.01,2013-04-11 02:24:00,
2013-04-10 22:29:00,66.0,62.0,30.21,East,84,0.0,0.0,87,0.00,,CLR,0.00,VWS V14.01,2013-04-11 02:29:00,
2013-04-10 22:34:00,65.6,61.6,30.21,East,84,0.0,0.0,87,0.00,,CLR,0.00,VWS V14.01,2013-04-11 02:34:00,
2013-04-10 22:39:00,65.3,61.3,30.21,East,84,0.0,0.0,87,0.00,,CLR,0.00,VWS V14.01,2013-04-11 02:39:00,
2013-04-10 22:45:00,65.0,61.0,30.21,East,84,0.0,0.0,87,0.00,,CLR,0.00,VWS V14.01,2013-04-11 02:45:00,
2013-04-10 22:50:00,64.7,61.1,30.21,East,84,0.0,0.0,88,0.00,,CLR,0.00,VWS V14.01,2013-04-11 02:50:00,
2013-04-10 22:55:00,64.3,61.0,30.21,East,84,0.0,0.0,89,0.00,,CLR,0.00,VWS V14.01,2013-04-11 02:55:00,
2013-04-10 23:00:00,64.0,61.0,30.21,East,84,0.0,0.0,90,0.00,,CLR,0.00,VWS V14.01,2013-04-11 03:00:00,
2013-04-10 23:05:00,63.9,60.9,30.21,East,84,0.0,0.0,90,0.00,,CLR,0.00,VWS V14.01,2013-04-11 03:05:00,
2013-04-10 23:10:00,63.7,60.7,30.21,East,84,0.0,0.0,90,0.00,,CLR,0.00,VWS V14.01,2013-04-11 03:10:00,
2013-04-10 23:16:00,63.5,60.8,30.20,East,84,0.0,0.0,91,0.00,,CLR,0.00,VWS V14.01,2013-04-11 03:16:00,
2013-04-10 23:21:00,63.2,60.5,30.20,East,84,0.0,0.0,91,0.00,,CLR,0.00,VWS V14.01,2013-04-11 03:21:00,
2013-04-10 23:26:00,63.1,60.4,30.20,East,84,0.0,0.0,91,0.00,,CLR,0.00,VWS V14.01,2013-04-11 03:26:00,
2013-04-10 23:31:00,63.1,60.7,30.19,East,84,0.0,0.0,92,0.00,,CLR,0.00,VWS V14.01,2013-04-11 03:31:00,
2013-04-10 23:36:00,62.9,60.5,30.19,East,84,0.0,0.0,92,0.00,,CLR,0.00,VWS V14.01,2013-04-11 03:36:00,
2013-04-10 23:41:00,62.7,60.3,30.19,East,84,0.0,0.0,92,0.00,,CLR,0.00,VWS V14.01,2013-04-11 03:41:00,
2013-04-10 23:46:00,62.6,60.5,30.19,East,84,0.0,0.0,93,0.00,,CLR,0.00,VWS V14.01,2013-04-11 03:46:00,
2013-04-10 23:51:00,62.6,60.5,30.19,East,84,0.0,0.0,93,0.00,,CLR,0.00,VWS V14.01,2013-04-11 03:51:00,
2013-04-10 23:56:00,62.6,60.5,30.19,East,84,0.0,0.0,93,0.00,,CLR,0.00,VWS V14.01,2013-04-11 03:56:00,